| time (UTC) | temp C | wind direction | speed KPH | gust KPH | rain 1hr cm | rain 24hr cm | rain mn cm | humidity % | barometer mb |
| 20260505101539 | 6 | 241 | 4.8 | 12.9 | 0.00 | 0.03 | 0.00 | 89 | 1011.0 |
| 20260505100037 | 6 | 207 | 3.2 | 9.7 | 0.00 | 0.03 | 0.00 | 90 | 1010.8 |
| 20260505094536 | 5 | 231 | 1.6 | 11.3 | 0.00 | 0.05 | 0.00 | 90 | 1010.7 |
| 20260505093039 | 5 | 255 | 3.2 | 14.5 | 0.00 | 0.05 | 0.00 | 91 | 1010.6 |
| 20260505091531 | 4 | 249 | 0.0 | 4.8 | 0.00 | 0.05 | 0.00 | 92 | 1010.4 |
| 20260505090040 | 3 | 250 | 0.0 | 3.2 | 0.00 | 0.05 | 0.00 | 92 | 1010.2 |
| 20260505084529 | 3 | 250 | 0.0 | 6.4 | 0.00 | 0.05 | 0.00 | 91 | 1009.9 |
| 20260505083026 | 3 | 223 | 1.6 | 4.8 | 0.00 | 0.05 | 0.00 | 91 | 1009.6 |
| 20260505081523 | 3 | 257 | 1.6 | 4.8 | 0.00 | 0.05 | 0.00 | 91 | 1009.4 |
| 20260505080021 | 3 | 257 | 1.6 | 8.0 | 0.00 | 0.05 | 0.00 | 91 | 1009.2 |
| 20260505074519 | 3 | 248 | 3.2 | 9.7 | 0.00 | 0.08 | 0.00 | 91 | 1009.0 |
| 20260505073029 | 3 | 257 | 4.8 | 12.9 | 0.00 | 0.08 | 0.00 | 91 | 1008.8 |
| 20260505071519 | 3 | 262 | 3.2 | 9.7 | 0.00 | 0.08 | 0.00 | 91 | 1008.6 |
| 20260505070014 | 3 | 249 | 1.6 | 9.7 | 0.00 | 0.08 | 0.00 | 91 | 1008.4 |
| 20260505064530 | 3 | 250 | 3.2 | 9.7 | 0.00 | 0.08 | 0.00 | 91 | 1008.2 |
| 20260505063008 | 3 | 275 | 3.2 | 6.4 | 0.00 | 0.08 | 0.00 | 90 | 1007.9 |
| 20260505061510 | 3 | 256 | 1.6 | 4.8 | 0.00 | 0.08 | 0.00 | 90 | 1007.6 |
| 20260505060002 | 3 | 234 | 1.6 | 6.4 | 0.00 | 0.08 | 0.00 | 90 | 1007.2 |
| 20260505054628 | 4 | 269 | 1.6 | 9.7 | 0.00 | 0.10 | 0.00 | 90 | 1007.0 |
| 20260505053108 | 4 | 231 | 3.2 | 12.9 | 0.00 | 0.10 | 0.00 | 90 | 1006.7 |
| 20260505051554 | 4 | 233 | 4.8 | 14.5 | 0.00 | 0.10 | 0.00 | 90 | 1006.4 |
| 20260505041554 | 5 | 197 | 4.8 | 12.9 | 0.00 | 0.10 | 0.00 | 89 | 1005.7 |
| 20260505040040 | 5 | 250 | 3.2 | 9.7 | 0.00 | 0.10 | 0.00 | 88 | 1005.8 |
| 20260505034537 | 5 | 207 | 3.2 | 14.5 | 0.00 | 0.10 | 0.00 | 88 | 1005.7 |
| 20260505033034 | 5 | 251 | 3.2 | 9.7 | 0.00 | 0.10 | 0.00 | 86 | 1005.3 |
| 20260505031541 | 6 | 237 | 0.0 | 14.5 | 0.00 | 0.10 | 0.00 | 85 | 1004.9 |
| 20260505030025 | 6 | 234 | 6.4 | 17.7 | 0.00 | 0.10 | 0.00 | 84 | 1004.6 |
| 20260505024533 | 6 | 235 | 6.4 | 14.5 | 0.00 | 0.10 | 0.10 | 85 | 1004.4 |
| 20260505023022 | 6 | 237 | 3.2 | 12.9 | 0.00 | 0.10 | 0.10 | 85 | 1004.2 |
| 20260505021526 | 6 | 220 | 4.8 | 16.1 | 0.00 | 0.10 | 0.10 | 85 | 1004.1 |
| 20260505020029 | 5 | 137 | 4.8 | 14.5 | 0.00 | 0.10 | 0.10 | 86 | 1004.0 |
| 20260505014527 | 5 | 170 | 3.2 | 16.1 | 0.00 | 0.15 | 0.10 | 85 | 1003.9 |
| 20260505013019 | 6 | 190 | 4.8 | 16.1 | 0.00 | 0.15 | 0.10 | 82 | 1004.0 |
| 20260505011530 | 7 | 237 | 1.6 | 9.7 | 0.00 | 0.15 | 0.10 | 79 | 1004.0 |
| 20260505010018 | 7 | 222 | 4.8 | 17.7 | 0.00 | 0.15 | 0.10 | 79 | 1004.1 |
| 20260505004534 | 6 | 239 | 1.6 | 12.9 | 0.00 | 0.28 | 0.10 | 80 | 1003.9 |
| 20260505003016 | 6 | 181 | 3.2 | 12.9 | 0.00 | 0.28 | 0.10 | 80 | 1003.9 |
| 20260505001514 | 6 | 231 | 3.2 | 12.9 | 0.00 | 0.28 | 0.10 | 82 | 1003.7 |
| 20260505000020 | 6 | 186 | 8.0 | 20.9 | 0.00 | 0.28 | 0.10 | 82 | 1003.4 |
| 20260504234508 | 6 | 178 | 8.0 | 20.9 | 0.00 | 0.76 | 0.10 | 80 | 1003.0 |
| 20260504233007 | 7 | 202 | 8.0 | 17.7 | 0.00 | 0.76 | 0.10 | 76 | 1002.8 |
| 20260504231505 | 7 | 194 | 9.7 | 19.3 | 0.00 | 0.76 | 0.10 | 73 | 1002.7 |
| 20260504230005 | 10 | 222 | 6.4 | 17.7 | 0.00 | 0.76 | 0.10 | 64 | 1002.3 |
| 20260504224502 | 11 | 277 | 8.0 | 35.4 | 0.00 | 1.24 | 0.10 | 62 | 1002.3 |
| 20260504223001 | 11 | 312 | 14.5 | 27.4 | 0.00 | 1.24 | 0.10 | 62 | 1002.1 |
| 20260504221606 | 12 | 251 | 16.1 | 33.8 | 0.00 | 1.24 | 0.10 | 61 | 1001.8 |
| 20260504220101 | 12 | 258 | 16.1 | 27.4 | 0.00 | 1.24 | 0.10 | 62 | 1001.6 |
| 20260504214558 | 12 | 236 | 17.7 | 33.8 | 0.00 | 1.75 | 0.10 | 60 | 1001.5 |
| 20260504213054 | 12 | 260 | 20.9 | 37.0 | 0.00 | 1.75 | 0.10 | 58 | 1001.4 |
| 20260504211551 | 12 | 277 | 22.5 | 41.8 | 0.00 | 1.75 | 0.10 | 55 | 1001.1 |
| 20260504210050 | 12 | 245 | 29.0 | 46.7 | 0.00 | 1.75 | 0.10 | 54 | 1000.8 |
| 20260504204542 | 12 | 241 | 16.1 | 38.6 | 0.00 | 1.83 | 0.10 | 58 | 1000.7 |
| 20260504203039 | 12 | 235 | 20.9 | 40.2 | 0.00 | 1.83 | 0.10 | 56 | 1000.5 |
| 20260504201534 | 12 | 264 | 24.1 | 46.7 | 0.00 | 1.83 | 0.10 | 62 | 999.9 |
| 20260504200031 | 12 | 207 | 22.5 | 45.1 | 0.00 | 1.83 | 0.10 | 66 | 999.7 |
| 20260504194528 | 12 | 245 | 20.9 | 49.9 | 0.00 | 1.83 | 0.10 | 67 | 999.0 |
| 20260504193025 | 12 | 280 | 20.9 | 53.1 | 0.00 | 1.83 | 0.10 | 69 | 998.7 |
| 20260504191523 | 11 | 322 | 20.9 | 46.7 | 0.00 | 1.83 | 0.10 | 70 | 998.7 |
| 20260504190016 | 11 | 264 | 20.9 | 51.5 | 0.00 | 1.83 | 0.10 | 73 | 998.4 |
| 20260504184513 | 11 | 233 | 24.1 | 43.5 | 0.00 | 1.85 | 0.10 | 75 | 998.2 |
| 20260504183007 | 11 | 264 | 20.9 | 46.7 | 0.00 | 1.85 | 0.10 | 78 | 998.0 |
| 20260504181504 | 9 | 277 | 17.7 | 40.2 | 0.00 | 1.85 | 0.10 | 80 | 998.1 |
| 20260504180003 | 9 | 272 | 17.7 | 41.8 | 0.00 | 1.85 | 0.10 | 81 | 997.9 |
| 20260504174558 | 8 | 261 | 25.7 | 48.3 | 0.00 | 1.85 | 0.10 | 82 | 997.7 |
| 20260504173056 | 8 | 244 | 16.1 | 41.8 | 0.00 | 1.85 | 0.10 | 82 | 997.1 |
| 20260504171553 | 8 | 268 | 22.5 | 43.5 | 0.00 | 1.85 | 0.10 | 84 | 996.9 |